#timestamp,LO_Frequency,Hit,StdDev 
1504400415.9,286047000.9,N,1.5
1504400435.7,286047000.3,N,1.4
1504400455.6,286047000.3,N,1.4
1504400475.4,286047000.1,N,1.3
1504400495.2,286047002.1,N,1.3
1504400515.1,286047002.0,N,1.3
1504400516.0,286047002.0,N,1.3
1504400535.8,286047002.1,N,1.2
1504400555.6,286047001.9,N,1.2
1504400575.5,286047002.0,N,1.2
1504400595.3,286047003.9,Y,0.0
1504400615.2,286047001.5,P,0.1
1504400635.0,286047002.5,P,0.5
1504400635.9,286047002.5,P,0.6
1504400655.7,286047001.4,N,0.5
1504400675.6,286047003.6,Y,0.0
1504400695.4,286047002.2,P,0.2
1504400715.3,286047000.0,N,1.0
1504400735.1,286047000.0,N,1.0
1504400755.8,286047000.7,N,0.9
1504400775.7,286046999.9,N,0.9
1504400795.5,286047000.1,N,0.9
1504400815.4,286047000.4,N,0.8
1504400835.2,286047001.0,N,0.8
1504400855.0,286046998.2,N,1.1
1504400855.9,286046998.2,N,1.2
1504400875.8,286047001.2,N,1.2
1504400895.6,286046996.5,N,1.5
1504400915.5,286046998.9,N,1.5
1504400935.3,286046996.5,N,1.7
1504400955.1,286046999.5,N,1.6
1504400975.9,286046996.7,N,1.7
1504400995.7,286046996.5,N,1.8
1504401015.5,286046999.5,N,1.8
1504401035.4,286046996.7,N,1.8
1504401055.2,286046997.8,N,1.8
1504401075.1,286046995.6,N,1.9
1504401076.0,286046995.6,N,2.0
1504401095.8,286046995.6,N,2.1
1504401115.6,286046997.9,N,2.0
1504401135.5,286046997.5,N,2.0
1504401155.3,286046995.0,N,2.1
1504401175.2,286046995.6,N,2.1
1504401195.9,286046995.5,N,2.1
1504401215.7,286046994.9,N,2.2
1504401235.6,286046993.7,N,2.2
1504401255.4,286046996.4,N,2.1
1504401275.3,286046994.3,N,2.1
1504401295.1,286046994.2,N,2.2
1504401296.0,286046994.2,N,2.1
1504401315.8,286046994.6,N,2.1
1504401335.7,286046994.8,N,2.1
1504401355.5,286046991.7,Y,0.0
1504401375.4,286046995.7,P,0.5
1504401395.2,286046995.3,P,0.6
1504401415.0,286046996.0,P,0.5
1504401415.9,286046996.0,Y,0.0
1504401435.8,286046998.7,P,1.4
1504401455.6,286046999.3,N,1.5
1504401475.5,286046998.6,N,1.3
1504401495.3,286046998.7,N,1.2
1504401515.1,286046999.0,N,1.1
1504401535.9,286046999.0,N,1.1
1504401555.7,286046998.9,N,1.0
1504401575.5,286046998.4,N,0.9
1504401595.4,286047000.7,N,1.1
1504401615.2,286046999.5,N,1.1
1504401635.1,286046999.2,N,1.0
1504401636.0,286046999.2,N,1.0
1504401655.8,286046999.4,N,1.0
1504401675.6,286046996.6,Y,0.0
1504401695.5,286047000.8,P,1.0
1504401715.3,286047000.8,N,0.9
1504401735.2,286046998.4,N,1.1
1504401755.9,286046998.4,N,1.1
1504401775.7,286046998.7,N,1.1
1504401795.6,286047001.0,N,1.1
1504401815.4,286046998.2,N,1.2
1504401835.3,286046998.4,N,1.1
1504401855.1,286046998.2,N,1.1
1504401856.0,286046998.2,N,1.1
1504401875.8,286046998.8,N,1.1
1504401895.7,286046998.1,N,1.1
1504401915.5,286047001.1,N,1.2
1504401935.3,286046998.6,N,1.1
1504401955.2,286046998.4,N,1.1
1504401975.0,286046999.2,N,1.1
1504401975.9,286046999.2,N,1.0
1504401995.8,286046999.1,N,1.0
1504402015.6,286046999.3,N,1.0
1504402035.4,286046999.1,N,1.0
1504402055.3,286046996.6,Y,0.0
1504402075.1,286046998.9,P,0.1
1504402095.9,286046998.3,P,0.3
1504402115.7,286046998.6,P,0.3
1504402135.5,286047000.5,N,0.8
1504402155.4,286047000.8,N,0.9
1504402175.2,286047001.0,N,1.0
1504402195.1,286047000.8,N,1.1
1504402196.0,286047000.8,N,1.0
1504402215.8,286046998.6,N,1.1
1504402235.6,286046999.3,N,1.0
1504402255.5,286046997.3,N,1.2
1504402275.3,286046996.9,N,1.3
1504402295.1,286046997.3,N,1.4
1504402315.9,286046997.3,N,1.4
1504402335.7,286046997.6,N,1.4
1504402355.6,286046997.1,N,1.4
1504402375.4,286046997.6,N,1.4
1504402395.2,286046997.5,N,1.4
1504402415.1,286046997.8,N,1.4
1504402416.0,286046997.8,N,1.4
1504402435.8,286046998.0,N,1.3
1504402455.7,286046995.4,Y,0.0
1504402475.5,286046998.3,P,0.1
1504402495.4,286046998.8,P,0.2
1504402515.2,286046999.0,P,0.3
1504402535.0,286046998.0,Y,0.0
1504402535.9,286046998.0,P,0.3
1504402555.8,286046998.2,P,0.3
1504402575.6,286047000.6,N,1.0
1504402595.5,286047000.6,N,1.2
1504402615.3,286047000.4,N,1.1
1504402635.1,286047000.3,N,1.1
1504402655.9,286047001.0,N,1.1
1504402675.7,286047000.3,N,1.1
1504402695.5,286047000.7,N,1.1
1504402715.4,286047000.5,N,1.0
1504402735.2,286047001.0,N,1.0
1504402755.1,286047001.1,N,1.0
1504402756.0,286047001.1,N,1.0
1504402775.8,286046998.7,N,1.1
1504402795.7,286046998.2,N,1.1
1504402815.5,286046998.6,N,1.1
1504402835.3,286046998.3,N,1.2
1504402855.2,286046998.8,N,1.2
1504402875.0,286046998.9,N,1.1
1504402875.9,286046998.9,N,1.1
1504402895.8,286046999.2,N,1.1
1504402915.6,286046999.4,N,1.1
1504402935.4,286046999.1,N,1.1
1504402955.3,286046999.4,N,1.0
1504402975.1,286046996.7,Y,0.0
1504402995.9,286046999.1,P,0.2
1504403015.7,286046998.7,P,0.4
1504403035.5,286046999.0,N,0.3
1504403055.4,286046998.3,Y,0.0
1504403075.2,286046999.9,P,0.4
1504403095.1,286047002.2,P,1.3
1504403096.0,286047002.2,N,1.4
1504403115.8,286047001.9,N,1.3
1504403135.6,286047000.0,N,1.3
1504403155.5,286047000.0,N,1.2
1504403175.3,286047002.5,N,1.3
1504403195.1,286047000.1,N,1.2
1504403215.9,286047001.0,N,1.2
1504403235.7,286047002.7,N,1.2
1504403285.6,286047000.0,E,nan
1504403295.5,286047001.0,N,0.0
1504403315.4,286047000.9,P,0.1
1504403335.2,286047000.4,P,0.3
1504403355.0,286047002.7,Y,0.0
1504403355.9,286047002.7,P,1.0
1504403375.8,286047002.3,N,0.8
1504403395.6,286047001.5,N,0.7
1504403415.5,286047002.4,Y,0.0
1504403435.3,286047000.9,P,0.5
1504403455.1,286047001.1,N,0.4
1504403475.9,286046998.1,P,1.4
1504403495.7,286047000.6,N,1.3
1504403515.5,286047000.6,N,1.2
1504403535.4,286047001.2,N,1.1
1504403555.2,286047000.9,N,1.0
1504403575.1,286046999.8,N,1.0
1504403576.0,286046999.8,N,1.0
1504403595.8,286047002.3,N,1.1
1504403615.6,286047000.1,N,1.0
1504403635.5,286046999.8,N,1.0
1504403655.3,286046999.7,N,1.0
1504403675.2,286047002.5,N,1.1
1504403695.9,286046999.8,N,1.1
1504403715.7,286047001.9,N,1.1
1504403735.6,286047001.8,N,1.1
1504403755.4,286047001.3,N,1.1
1504403775.3,286047002.1,N,1.1
1504403795.1,286047002.2,N,1.1
1504403815.8,286047002.4,N,1.1
1504403835.7,286047002.0,N,1.1
1504403855.5,286047001.6,N,1.1
1504403875.4,286047002.3,N,1.1
1504403895.2,286047001.4,N,1.1
1504403915.0,286047002.2,N,1.1
1504403915.9,286047002.2,N,1.1
1504403935.8,286047002.1,N,1.1
1504403955.6,286047002.6,N,1.1
1504403975.4,286047001.9,N,1.1
1504403995.3,286047011.9,Y,0.0
